Location: Jastrz?bniki
(50.3667°N, 20.3833°E)
Time: 11:08:45
(UTC+00:00)

Cosmos 2278 - Pass Details

Date: 05 August 2024
Orbit: 839 x 851 km, 71.1° (Epoch: 09 September)

Event Time Altitude Azimuth Distance (km) Brightness Sun altitude
Exits shadow 00:05:26 40° 208° (SSW) 1,234 4.0 -20.4°
Maximum altitude 00:07:37 89° 303° (WNW) 858 3.6 -20.3°
Drops below altitude 10° 00:13:21 10° 29° (NNE) 2,487 7.3 -20.0°
Sets 00:15:48 0° 30° (NNE) 3,425 8.5 -19.8°
